Change the Weather History Date:

Wednesday, October 31, 2012

  Actual Average Record
Temperature  
Mean Temperature 43 °F -  
Max Temperature 52 °F 66 °F 85 °F (1968)
Min Temperature 34 °F 45 °F 26 °F (1988)
Degree Days  
Heating Degree Days 22    
Moisture  
Dew Point 23 °F    
Average Humidity 45    
Maximum Humidity 68    
Minimum Humidity 25    
Precipitation  
Precipitation 0.00 in - - ()
Sea Level Pressure  
Sea Level Pressure 29.92 in    
Wind  
Wind Speed 8 mph (WNW)    
Max Wind Speed 16 mph    
Max Gust Speed 24 mph    
Visibility 10 miles    
Events      
Averages and records for this station are not official NWS values.
T = Trace of Precipitation, MM = Missing Value Source: NWS Daily Summary

Daily Weather History Graph

Daily Weather History Graph

Search for Another Location

Airport or City:

Trip Planner

Search our weather history database for the weather conditions in past years. The results will help you decide how hot, cold, wet, or windy it might be!

Date:

Astronomy

Oct. 31, 2012 Rise Set
Actual Time 7:22 AM CDT 5:56 PM CDT
Civil Twilight 6:54 AM CDT 6:23 PM CDT
Nautical Twilight 6:23 AM CDT 6:55 PM CDT
Astronomical Twilight 5:52 AM CDT 7:26 PM CDT
Moon 7:08 PM CDT (10/31) 9:01 AM CDT (10/31)
Length of Visible Light 11h 29m
Length of Day
10h 34m
Full, 97% of the Moon is Illuminated
Oct 31
Full
Nov 6
Last Quarter
Nov 13
New
Nov 20
First Quarter
Nov 28
Full

Hourly Weather History & Observations

Time (CDT) Temp. Windchill Dew Point Humidity Pressure Visibility Wind Dir Wind Speed Gust Speed Precip Events Conditions
12:15 AM 41.7 °F 37.3 °F 21.7 °F 45% 29.88 in 10.0 mi WNW 6.9 mph - N/A   Clear
12:35 AM 41.2 °F 36.6 °F 21.7 °F 46% 29.88 in 10.0 mi NW 6.9 mph - N/A   Clear
12:55 AM 41.0 °F 37.1 °F 21.7 °F 46% 29.88 in 10.0 mi WNW 5.8 mph - N/A   Clear
1:15 AM 41.0 °F 36.4 °F 21.7 °F 46% 29.88 in 10.0 mi WNW 6.9 mph - N/A   Clear
1:35 AM 40.1 °F 36.1 °F 22.3 °F 49% 29.88 in 10.0 mi WNW 5.8 mph - N/A   Clear
1:55 AM 40.3 °F 35.5 °F 21.9 °F 48% 29.88 in 10.0 mi WNW 6.9 mph - N/A   Clear
2:15 AM 40.1 °F 35.3 °F 21.9 °F 48% 29.88 in 10.0 mi WNW 6.9 mph - N/A   Clear
2:35 AM 40.1 °F 35.3 °F 21.9 °F 48% 29.88 in 10.0 mi WNW 6.9 mph - N/A   Clear
2:55 AM 39.2 °F 34.2 °F 23.0 °F 52% 29.88 in 10.0 mi WNW 6.9 mph - N/A   Clear
3:15 AM 38.7 °F 33.6 °F 22.5 °F 52% 29.89 in 10.0 mi WNW 6.9 mph - N/A   Clear
3:35 AM 38.8 °F 32.6 °F 22.5 °F 52% 29.89 in 10.0 mi WNW 9.2 mph - N/A   Clear
3:55 AM 39.2 °F 32.5 °F 22.1 °F 50% 29.89 in 10.0 mi WNW 10.4 mph - N/A   Clear
4:15 AM 39.0 °F 32.8 °F 22.5 °F 52% 29.89 in 10.0 mi WNW 9.2 mph - N/A   Clear
4:35 AM 38.7 °F 31.8 °F 22.6 °F 53% 29.89 in 10.0 mi WNW 10.4 mph - N/A   Clear
4:55 AM 38.3 °F 32.5 °F 23.0 °F 54% 29.89 in 10.0 mi NW 8.1 mph - N/A   Clear
5:15 AM 36.9 °F 31.4 °F 23.7 °F 59% 29.89 in 10.0 mi NW 6.9 mph - N/A   Clear
5:35 AM 36.5 °F 31.0 °F 23.9 °F 60% 29.90 in 10.0 mi NW 6.9 mph - N/A   Clear
5:55 AM 35.8 °F 30.1 °F 23.9 °F 62% 29.89 in 10.0 mi NW 6.9 mph - N/A   Clear
6:15 AM 35.2 °F 29.5 °F 23.9 °F 63% 29.90 in 10.0 mi WNW 6.9 mph - N/A   Clear
6:35 AM 35.2 °F 28.8 °F 24.1 °F 64% 29.90 in 10.0 mi WNW 8.1 mph - N/A   Clear
6:55 AM 35.2 °F 30.3 °F 23.9 °F 63% 29.90 in 10.0 mi NW 5.8 mph - N/A   Clear
7:15 AM 34.3 °F 29.2 °F 24.6 °F 68% 29.90 in 10.0 mi NW 5.8 mph - N/A   Clear
7:35 AM 34.7 °F 28.8 °F 24.1 °F 65% 29.90 in 10.0 mi NW 6.9 mph - N/A   Clear
7:55 AM 34.7 °F 28.8 °F 24.4 °F 66% 29.92 in 10.0 mi NW 6.9 mph - N/A   Clear
8:15 AM 36.0 °F 29.6 °F 24.3 °F 63% 29.92 in 10.0 mi WNW 8.1 mph - N/A   Clear
8:35 AM 37.0 °F 29.8 °F 24.4 °F 60% 29.93 in 10.0 mi NW 10.4 mph - N/A   Clear
8:55 AM 38.1 °F 31.2 °F 24.6 °F 58% 29.93 in 10.0 mi NW 10.4 mph 17.3 mph N/A   Clear
9:15 AM 39.2 °F 33.0 °F 25.5 °F 58% 29.93 in 10.0 mi WNW 9.2 mph - N/A   Clear
9:35 AM 39.7 °F 33.2 °F 25.2 °F 56% 29.93 in 10.0 mi NW 10.4 mph - N/A   Clear
9:55 AM 40.8 °F 33.7 °F 25.9 °F 55% 29.94 in 10.0 mi NW 12.7 mph 16.1 mph N/A   Clear
10:15 AM 41.4 °F 35.2 °F 25.9 °F 54% 29.94 in 10.0 mi NW 10.4 mph - N/A   Clear
10:35 AM 42.1 °F 35.7 °F 25.5 °F 52% 29.94 in 10.0 mi WNW 11.5 mph - N/A   Clear
10:55 AM 43.5 °F 37.1 °F 26.6 °F 51% 29.94 in 10.0 mi WNW 12.7 mph - N/A   Clear
11:15 AM 44.1 °F 38.1 °F 26.6 °F 50% 29.95 in 10.0 mi West 11.5 mph 16.1 mph N/A   Clear
11:35 AM 45.0 °F 38.9 °F 26.4 °F 48% 29.95 in 10.0 mi WNW 12.7 mph 20.7 mph N/A   Clear
11:55 AM 45.9 °F 39.7 °F 26.8 °F 47% 29.95 in 10.0 mi WNW 13.8 mph 19.6 mph N/A   Clear
12:15 PM 47.1 °F - 28.0 °F 48% 29.94 in 10.0 mi West 10.4 mph - N/A   Clear
12:35 PM 47.5 °F - 27.0 °F 45% 29.94 in 10.0 mi WNW 15.0 mph 19.6 mph N/A   Clear
12:55 PM 48.9 °F - 28.4 °F 45% 29.93 in 10.0 mi WNW 15.0 mph - N/A   Clear
1:15 PM 49.5 °F - 28.6 °F 45% 29.93 in 10.0 mi NW 16.1 mph - N/A   Clear
1:35 PM 49.3 °F - 28.0 °F 44% 29.93 in 10.0 mi WNW 15.0 mph 18.4 mph N/A   Clear
1:55 PM 50.0 °F - 27.3 °F 41% 29.92 in 10.0 mi WNW 11.5 mph 18.4 mph N/A   Clear
2:15 PM 50.9 °F - 27.3 °F 40% 29.91 in 10.0 mi West 15.0 mph - N/A   Clear
2:35 PM 51.3 °F - 26.4 °F 38% 29.91 in 10.0 mi West 12.7 mph 16.1 mph N/A   Clear
2:55 PM 51.6 °F - 24.4 °F 35% 29.91 in 10.0 mi WNW 9.2 mph 24.2 mph N/A   Clear
3:15 PM 52.0 °F - 22.6 °F 32% 29.91 in 10.0 mi WNW 12.7 mph 20.7 mph N/A   Clear
3:35 PM 52.2 °F - 24.6 °F 34% 29.91 in 10.0 mi WNW 13.8 mph 18.4 mph N/A   Clear
3:55 PM 51.8 °F - 22.3 °F 32% 29.91 in 10.0 mi WNW 12.7 mph 20.7 mph N/A   Clear
4:15 PM 52.0 °F - 20.7 °F 29% 29.91 in 10.0 mi WNW 15.0 mph 21.9 mph N/A   Clear
4:35 PM 51.8 °F - 19.6 °F 28% 29.91 in 10.0 mi WNW 11.5 mph 20.7 mph N/A   Clear
4:55 PM 52.0 °F - 19.9 °F 28% 29.91 in 10.0 mi WNW 10.4 mph 17.3 mph N/A   Clear
5:15 PM 51.4 °F - 17.8 °F 26% 29.91 in 10.0 mi WNW 11.5 mph - N/A   Clear
5:35 PM 50.7 °F - 17.8 °F 27% 29.92 in 10.0 mi WNW 12.7 mph - N/A   Clear
5:55 PM 49.8 °F - 15.4 °F 25% 29.92 in 10.0 mi WNW 12.7 mph - N/A   Clear
6:15 PM 48.7 °F - 15.4 °F 27% 29.92 in 10.0 mi WNW 6.9 mph - N/A   Clear
6:35 PM 47.7 °F - 16.2 °F 28% 29.93 in 10.0 mi WNW 6.9 mph - N/A   Clear
6:55 PM 46.0 °F 41.9 °F 17.8 °F 32% 29.93 in 10.0 mi WNW 8.1 mph - N/A   Clear
7:15 PM 44.6 °F 42.2 °F 19.6 °F 37% 29.93 in 10.0 mi WNW 4.6 mph - N/A   Clear
7:35 PM 44.4 °F 42.0 °F 19.9 °F 38% 29.94 in 10.0 mi WNW 4.6 mph - N/A   Clear
7:55 PM 45.3 °F 42.3 °F 19.8 °F 36% 29.94 in 10.0 mi WNW 5.8 mph - N/A   Clear
8:15 PM 45.5 °F 43.2 °F 19.0 °F 35% 29.94 in 10.0 mi WNW 4.6 mph - N/A   Clear
8:35 PM 45.1 °F 42.0 °F 18.9 °F 35% 29.95 in 10.0 mi WNW 5.8 mph - N/A   Clear
8:55 PM 43.5 °F 40.9 °F 20.3 °F 40% 29.95 in 10.0 mi West 4.6 mph - N/A   Clear
9:15 PM 43.3 °F 41.7 °F 19.0 °F 38% 29.95 in 10.0 mi WNW 3.5 mph - N/A   Clear
9:35 PM 42.3 °F 39.4 °F 19.9 °F 41% 29.95 in 10.0 mi West 4.6 mph - N/A   Clear
9:55 PM 42.1 °F 39.2 °F 19.6 °F 41% 29.95 in 10.0 mi West 4.6 mph - N/A   Clear
10:15 PM 41.7 °F 38.0 °F 19.9 °F 42% 29.96 in 10.0 mi West 5.8 mph - N/A   Clear
10:35 PM 41.0 °F 37.1 °F 20.7 °F 44% 29.96 in 10.0 mi WNW 5.8 mph - N/A   Clear
10:55 PM 43.0 °F 38.8 °F 18.0 °F 37% 29.96 in 10.0 mi WNW 6.9 mph - N/A   Clear
11:15 PM 43.0 °F 38.8 °F 18.0 °F 37% 29.96 in 10.0 mi WNW 6.9 mph - N/A   Clear
11:35 PM 43.0 °F 38.2 °F 17.6 °F 36% 29.96 in 10.0 mi WNW 8.1 mph - N/A   Clear
11:55 PM 42.8 °F 38.0 °F 17.6 °F 36% 29.96 in 10.0 mi WNW 8.1 mph - N/A   Clear